Location: Waco, TX
(31.5480°N, 97.1670°W)
Time: 15:07:20
(UTC-06:00)

ISS - Pass Details

Date: 03 January 2018
Orbit: 401 x 407 km, 51.6° (Epoch: 17 January)

Event Time Altitude Azimuth Distance (km) Brightness Sun altitude
Rises 03:36:43 0° 228° (SW) 2,301 - -48.6°
Reaches altitude 10° 03:38:47 10° 231° (SW) 1,446 - -48.1°
Maximum altitude 03:42:01 70° 315° (NW) 431 - -47.4°
Drops below altitude 10° 03:45:16 10° 40° (NE) 1,457 - -46.7°
Sets 03:47:22 0° 43° (NE) 2,321 - -46.3°
